Tracking 18785 objects as of 24-July-2017
HD Live streaming from Space Station
objects crossing your sky now
MAYAK may become the brightest orbital object in the night sky!
Where is MAYAK now?
How to spot MAYAK

METEOR 1-11 DEB

Track METEOR 1-11 DEB now!
10-day predictions


NORAD ID: 36305
Int'l Code: 1972-022D
Perigee: 758.2 km
Apogee: 782.2 km
Inclination: 81.2 °
Period: 100.1 minutes
Semi major axis: 7141 km
RCS: 0.003 m2 (small)
Launch date: March 30, 1972
Source: Commonwealth of Independent States (former USSR) (CIS)
Launch site: PLESETSK MISSILE AND SPACE COMPLEX (PKMTR)

Note: This is SATELLITE DEBRIS
Your satellite tracking list
Your tracking list is empty





NASA's NSSDC Master Catalog

Two Line Element Set (TLE):
1 36305U 72022D   17195.52978874 +.00002128 +00000-0 +68969-3 0  9997
2 36305 081.2034 127.4308 0016753 263.6476 096.6553 14.38624243465914
Source of the keplerian elements: AFSPC